Location: Cruquius
(52.3348°N, 4.6319°E)
Time: 07:47:23
(UTC+00:00)

Cosmos 1151 Rocket - Pass Details

Date: 12 May 2021
Orbit: 592 x 616 km, 82.5° (Epoch: 15 June)

Event Time Altitude Azimuth Distance (km) Brightness Sun altitude
Rises 20:09:29 0° 181° (S) 2,866 6.1 -6.1°
Reaches altitude 10° 20:11:41 10° 178° (S) 1,969 5.2 -6.4°
Maximum altitude 20:16:00 65° 97° (E) 680 3.1 -6.9°
Drops below altitude 10° 20:20:23 10° 16° (NNE) 1,992 6.1 -7.4°
Sets 20:22:38 0° 13° (NNE) 2,903 7.0 -7.6°
